Hourly Weather Kiszombor

Today, 27 July, Tuesday

Time Temperature Precipitation Wind Pressure Humidity
00:00 +27°C° 0 mm 3 mps 753 mmHg 46%
01:00 +27°C° 0 mm 3 mps 753 mmHg 50%
02:00 +26°C° 0 mm 3 mps 754 mmHg 53%
03:00 +25°C° 0 mm 3 mps 754 mmHg 57%
04:00 +24°C° 0 mm 3 mps 754 mmHg 60%
05:00 +26°C° 0 mm 3 mps 754 mmHg 55%
06:00 +27°C° 0 mm 3 mps 754 mmHg 50%
07:00 +29°C° 0 mm 3 mps 754 mmHg 45%
08:00 +31°C° 0 mm 3 mps 755 mmHg 39%
09:00 +35°C° 0 mm 3 mps 755 mmHg 33%
10:00 +37°C° 0 mm 3 mps 755 mmHg 27%
11:00 +38°C° 0 mm 4 mps 754 mmHg 25%
12:00 +40°C° 0 mm 4 mps 754 mmHg 23%
13:00 +41°C° 0 mm 5 mps 754 mmHg 20%
14:00 +41°C° 0 mm 5 mps 754 mmHg 20%
15:00 +41°C° 0 mm 4 mps 753 mmHg 20%
16:00 +41°C° 0 mm 4 mps 753 mmHg 19%
17:00 +40°C° 0 mm 4 mps 753 mmHg 22%
18:00 +37°C° 0 mm 3 mps 753 mmHg 25%
19:00 +35°C° 0 mm 3 mps 753 mmHg 28%
20:00 +33°C° 0 mm 3 mps 753 mmHg 31%
21:00 +31°C° 0 mm 3 mps 753 mmHg 34%
22:00 +30°C° 0 mm 3 mps 753 mmHg 37%
23:00 +28°C° 0.1 mm 2 mps 753 mmHg 41%

Tomorrow, 28 July, Wednesday

Time Temperature Precipitation Wind Pressure Humidity
00:00 +27°C° 0.1 mm 1 mps 753 mmHg 46%
01:00 +26°C° 0.1 mm 1 mps 753 mmHg 51%
02:00 +26°C° 0 mm 1 mps 753 mmHg 51%
03:00 +26°C° 0 mm 1 mps 753 mmHg 52%
04:00 +25°C° 0 mm 1 mps 753 mmHg 52%
05:00 +27°C° 0 mm 2 mps 753 mmHg 48%
06:00 +28°C° 0 mm 2 mps 753 mmHg 45%
07:00 +30°C° 0 mm 3 mps 753 mmHg 41%
08:00 +33°C° 0 mm 3 mps 753 mmHg 36%
09:00 +36°C° 0 mm 3 mps 753 mmHg 31%
10:00 +38°C° 0 mm 4 mps 753 mmHg 26%
11:00 +41°C° 0 mm 4 mps 752 mmHg 23%
12:00 +42°C° 0 mm 4 mps 752 mmHg 20%
13:00 +43°C° 0 mm 5 mps 751 mmHg 16%
14:00 +45°C° 0 mm 5 mps 751 mmHg 16%
15:00 +45°C° 0 mm 6 mps 751 mmHg 15%
16:00 +45°C° 0 mm 6 mps 750 mmHg 14%
17:00 +41°C° 0 mm 5 mps 750 mmHg 17%
18:00 +38°C° 0 mm 4 mps 750 mmHg 20%
19:00 +36°C° 0 mm 3 mps 750 mmHg 23%
20:00 +34°C° 0 mm 3 mps 751 mmHg 26%
21:00 +31°C° 0 mm 3 mps 751 mmHg 29%
22:00 +30°C° 0 mm 3 mps 752 mmHg 31%
23:00 +29°C° 0 mm 3 mps 752 mmHg 37%

Day after tomorrow, 29 July, Thursday

Time Temperature Precipitation Wind Pressure Humidity
00:00 +27°C° 0 mm 3 mps 752 mmHg 43%
01:00 +26°C° 0 mm 3 mps 752 mmHg 49%
02:00 +25°C° 0 mm 3 mps 752 mmHg 58%
03:00 +24°C° 0 mm 3 mps 752 mmHg 67%
04:00 +22°C° 0 mm 3 mps 753 mmHg 76%
05:00 +24°C° 0 mm 3 mps 753 mmHg 70%
06:00 +26°C° 0 mm 4 mps 753 mmHg 63%
07:00 +27°C° 0 mm 4 mps 754 mmHg 57%
08:00 +29°C° 0 mm 4 mps 754 mmHg 49%
09:00 +32°C° 0 mm 4 mps 754 mmHg 40%
10:00 +35°C° 0 mm 4 mps 754 mmHg 32%
11:00 +36°C° 0 mm 4 mps 754 mmHg 28%
12:00 +37°C° 0 mm 4 mps 753 mmHg 24%
13:00 +38°C° 0 mm 4 mps 753 mmHg 21%
14:00 +40°C° 0 mm 4 mps 752 mmHg 20%
15:00 +40°C° 0 mm 4 mps 752 mmHg 19%
16:00 +40°C° 0 mm 4 mps 752 mmHg 18%
17:00 +37°C° 0 mm 3 mps 752 mmHg 20%
18:00 +35°C° 0 mm 3 mps 751 mmHg 22%
19:00 +33°C° 0 mm 3 mps 751 mmHg 25%
20:00 +30°C° 0 mm 3 mps 752 mmHg 25%
21:00 +29°C° 0 mm 2 mps 752 mmHg 26%
22:00 +28°C° 0 mm 2 mps 752 mmHg 27%
23:00 +27°C° 0 mm 3 mps 752 mmHg 28%

30 July, Friday

Time Temperature Precipitation Wind Pressure Humidity
00:00 +26°C° 0 mm 3 mps 751 mmHg 30%
01:00 +26°C° 0 mm 3 mps 751 mmHg 32%
02:00 +25°C° 0 mm 3 mps 751 mmHg 35%
03:00 +25°C° 0 mm 2 mps 751 mmHg 38%
04:00 +25°C° 0 mm 2 mps 751 mmHg 41%
05:00 +27°C° 0 mm 2 mps 751 mmHg 38%
06:00 +29°C° 0 mm 2 mps 751 mmHg 34%
07:00 +31°C° 0 mm 2 mps 751 mmHg 31%
08:00 +34°C° 0 mm 2 mps 751 mmHg 27%
09:00 +37°C° 0 mm 2 mps 751 mmHg 24%
10:00 +39°C° 0 mm 2 mps 750 mmHg 21%
11:00 +40°C° 0 mm 3 mps 750 mmHg 20%
12:00 +42°C° 0 mm 3 mps 749 mmHg 18%
13:00 +43°C° 0 mm 4 mps 749 mmHg 16%
14:00 +43°C° 0 mm 4 mps 748 mmHg 16%
15:00 +43°C° 0 mm 3 mps 748 mmHg 16%
16:00 +43°C° 0 mm 3 mps 747 mmHg 16%
17:00 +40°C° 0 mm 3 mps 747 mmHg 19%
18:00 +38°C° 0 mm 3 mps 747 mmHg 21%
19:00 +36°C° 0 mm 2 mps 747 mmHg 24%
20:00 +34°C° 0 mm 2 mps 747 mmHg 27%
21:00 +32°C° 0 mm 2 mps 747 mmHg 30%
22:00 +30°C° 0 mm 1 mps 747 mmHg 34%
23:00 +29°C° 0 mm 2 mps 747 mmHg 35%

31 July, Saturday

Time Temperature Precipitation Wind Pressure Humidity
00:00 +29°C° 0 mm 2 mps 747 mmHg 36%
01:00 +28°C° 0 mm 3 mps 748 mmHg 37%
02:00 +27°C° 0 mm 3 mps 748 mmHg 44%
03:00 +25°C° 0 mm 3 mps 748 mmHg 51%
04:00 +24°C° 0 mm 3 mps 748 mmHg 58%
05:00 +26°C° 0 mm 3 mps 748 mmHg 55%
06:00 +27°C° 0 mm 3 mps 749 mmHg 53%
07:00 +29°C° 0 mm 3 mps 749 mmHg 50%
08:00 +31°C° 0 mm 3 mps 749 mmHg 44%
09:00 +34°C° 0 mm 2 mps 749 mmHg 38%
10:00 +37°C° 0 mm 2 mps 749 mmHg 31%
11:00 +38°C° 0 mm 2 mps 748 mmHg 28%
12:00 +39°C° 0 mm 3 mps 748 mmHg 24%
13:00 +42°C° 0 mm 3 mps 748 mmHg 21%
14:00 +42°C° 0 mm 4 mps 747 mmHg 20%
15:00 +42°C° 0 mm 4 mps 747 mmHg 20%
16:00 +42°C° 0 mm 4 mps 747 mmHg 19%
17:00 +40°C° 0 mm 5 mps 747 mmHg 23%
18:00 +37°C° 0 mm 5 mps 747 mmHg 28%
19:00 +34°C° 0 mm 6 mps 747 mmHg 32%
20:00 +32°C° 0.3 mm 5 mps 748 mmHg 41%
21:00 +28°C° 0.3 mm 4 mps 748 mmHg 50%
22:00 +26°C° 0.3 mm 4 mps 749 mmHg 59%
23:00 +25°C° 0 mm 4 mps 749 mmHg 64%

1 August, Sunday

Time Temperature Precipitation Wind Pressure Humidity
00:00 +23°C° 0 mm 4 mps 749 mmHg 68%
01:00 +22°C° 0 mm 4 mps 750 mmHg 73%
02:00 +21°C° 0 mm 4 mps 750 mmHg 76%
03:00 +20°C° 0 mm 3 mps 750 mmHg 79%
04:00 +20°C° 0 mm 3 mps 750 mmHg 82%
05:00 +21°C° 0 mm 3 mps 750 mmHg 76%
06:00 +24°C° 0 mm 3 mps 751 mmHg 69%
07:00 +26°C° 0 mm 2 mps 751 mmHg 62%
08:00 +28°C° 0 mm 2 mps 751 mmHg 54%
09:00 +31°C° 0 mm 1 mps 750 mmHg 46%
10:00 +31°C° 0 mm 0 mps 750 mmHg 38%
11:00 +35°C° 0 mm 1 mps 750 mmHg 34%
12:00 +37°C° 0 mm 2 mps 749 mmHg 30%
13:00 +38°C° 0 mm 2 mps 748 mmHg 27%
14:00 +39°C° 0 mm 3 mps 748 mmHg 25%
15:00 +39°C° 0 mm 3 mps 747 mmHg 24%
16:00 +40°C° 0 mm 4 mps 747 mmHg 22%
17:00 +37°C° 0 mm 5 mps 747 mmHg 30%
18:00 +34°C° 0 mm 7 mps 747 mmHg 38%
19:00 +31°C° 0 mm 8 mps 747 mmHg 46%
20:00 +27°C° 0.1 mm 7 mps 748 mmHg 56%
21:00 +23°C° 0.1 mm 6 mps 749 mmHg 66%
22:00 +20°C° 0.1 mm 5 mps 751 mmHg 76%
23:00 +19°C° 0 mm 4 mps 751 mmHg 78%
Show more